When you browse on this site, cookies collect data to enhance your experience and personalize the content and advertising you see.
Visit our Privacy Policy to learn more. By continuing to use the site, you agree to this use of cookies and data.
  • In Hungary
  • List of Countries
  • For 7 days
  • Water Temperature
  • Satellite Maps
  • Weather Map
  • News
  • Weather Widgets
  • user-avatar
    Login

    Hourly Weather Devin

    Today, 17 February, Sunday

    Time Temperature Precipitation Wind Pressure Humidity
    00:00 +1°C° 0 mm 1 mps 695 mmHg 56%
    01:00 +1°C° 0 mm 1 mps 695 mmHg 57%
    02:00 +1°C° 0 mm 1 mps 694 mmHg 62%
    03:00 +1°C° 0 mm 1 mps 694 mmHg 63%
    04:00 +1°C° 0 mm 1 mps 694 mmHg 64%
    05:00 -1°C° 0 mm 2 mps 694 mmHg 65%
    06:00 +1°C° 0 mm 1 mps 694 mmHg 63%
    07:00 +2°C° 0 mm 1 mps 694 mmHg 62%
    08:00 +3°C° 0 mm 1 mps 694 mmHg 59%
    09:00 +5°C° 0 mm 1 mps 695 mmHg 53%
    10:00 +7°C° 0 mm 1 mps 695 mmHg 48%
    11:00 +10°C° 0 mm 1 mps 695 mmHg 43%
    12:00 +11°C° 0 mm 1 mps 695 mmHg 43%
    13:00 +11°C° 0 mm 1 mps 695 mmHg 44%
    14:00 +12°C° 0 mm 1 mps 695 mmHg 43%
    15:00 +11°C° 0 mm 1 mps 694 mmHg 49%
    16:00 +10°C° 0 mm 1 mps 694 mmHg 55%
    17:00 +9°C° 0 mm 1 mps 693 mmHg 61%
    18:00 +7°C° 0 mm 1 mps 693 mmHg 64%
    19:00 +6°C° 0 mm 1 mps 693 mmHg 66%
    20:00 +4°C° 0 mm 1 mps 693 mmHg 69%
    21:00 +4°C° 0 mm 1 mps 693 mmHg 68%
    22:00 +4°C° 0 mm 1 mps 693 mmHg 66%
    23:00 +4°C° 0 mm 1 mps 693 mmHg 64%

    Tomorrow, 18 February, Monday

    Time Temperature Precipitation Wind Pressure Humidity
    00:00 +4°C° 0 mm 1 mps 693 mmHg 63%
    01:00 +4°C° 0 mm 1 mps 692 mmHg 62%
    02:00 +4°C° 0 mm 1 mps 692 mmHg 61%
    03:00 +4°C° 0 mm 1 mps 692 mmHg 61%
    04:00 +4°C° 0 mm 1 mps 692 mmHg 60%
    05:00 +4°C° 0 mm 1 mps 692 mmHg 60%
    06:00 +4°C° 0 mm 1 mps 692 mmHg 59%
    07:00 +4°C° 0 mm 1 mps 693 mmHg 59%
    08:00 +5°C° 0 mm 1 mps 693 mmHg 58%
    09:00 +7°C° 0 mm 1 mps 693 mmHg 53%
    10:00 +9°C° 0 mm 0 mps 694 mmHg 48%
    11:00 +12°C° 0 mm 0 mps 694 mmHg 43%
    12:00 +13°C° 0 mm 1 mps 694 mmHg 44%
    13:00 +13°C° 0 mm 1 mps 694 mmHg 45%
    14:00 +14°C° 0 mm 1 mps 694 mmHg 46%
    15:00 +13°C° 0 mm 1 mps 693 mmHg 52%
    16:00 +12°C° 0 mm 1 mps 693 mmHg 58%
    17:00 +9°C° 0 mm 0 mps 692 mmHg 64%
    18:00 +9°C° 0 mm 1 mps 692 mmHg 69%
    19:00 +7°C° 0 mm 1 mps 692 mmHg 75%
    20:00 +5°C° 0 mm 1 mps 692 mmHg 80%
    21:00 +5°C° 0 mm 1 mps 692 mmHg 80%
    22:00 +5°C° 0 mm 1 mps 692 mmHg 81%
    23:00 +5°C° 0 mm 1 mps 692 mmHg 81%

    Day after tomorrow, 19 February, Tuesday

    Time Temperature Precipitation Wind Pressure Humidity
    00:00 +5°C° 0 mm 1 mps 692 mmHg 81%
    01:00 +4°C° 0 mm 1 mps 692 mmHg 81%
    02:00 +4°C° 0 mm 1 mps 692 mmHg 82%
    03:00 +4°C° 0 mm 1 mps 692 mmHg 82%
    04:00 +4°C° 0 mm 1 mps 691 mmHg 82%
    05:00 +4°C° 0 mm 1 mps 691 mmHg 82%
    06:00 +4°C° 0 mm 1 mps 691 mmHg 80%
    07:00 +4°C° 0 mm 1 mps 692 mmHg 77%
    08:00 +5°C° 0 mm 1 mps 692 mmHg 75%
    09:00 +7°C° 0 mm 1 mps 692 mmHg 67%
    10:00 +9°C° 0 mm 1 mps 693 mmHg 58%
    11:00 +12°C° 0 mm 1 mps 693 mmHg 49%
    12:00 +12°C° 0 mm 1 mps 693 mmHg 49%
    13:00 +13°C° 0 mm 1 mps 692 mmHg 49%
    14:00 +13°C° 0 mm 1 mps 692 mmHg 49%
    15:00 +12°C° 0 mm 1 mps 692 mmHg 54%
    16:00 +11°C° 0 mm 1 mps 691 mmHg 60%
    17:00 +10°C° 0 mm 1 mps 691 mmHg 65%
    18:00 +9°C° 0 mm 1 mps 690 mmHg 72%
    19:00 +7°C° 0 mm 1 mps 690 mmHg 79%
    20:00 +5°C° 0 mm 1 mps 690 mmHg 85%
    21:00 +5°C° 0 mm 1 mps 690 mmHg 85%
    22:00 +5°C° 0 mm 1 mps 690 mmHg 85%
    23:00 +4°C° 0 mm 1 mps 690 mmHg 85%

    20 February, Wednesday

    Time Temperature Precipitation Wind Pressure Humidity
    00:00 +4°C° 0 mm 1 mps 690 mmHg 85%
    01:00 +4°C° 0 mm 1 mps 690 mmHg 84%
    02:00 +4°C° 0 mm 1 mps 690 mmHg 83%
    03:00 +4°C° 0 mm 1 mps 690 mmHg 81%
    04:00 +4°C° 0 mm 1 mps 689 mmHg 79%
    05:00 +4°C° 0 mm 1 mps 689 mmHg 77%
    06:00 +4°C° 0 mm 1 mps 690 mmHg 73%
    07:00 +4°C° 0 mm 1 mps 690 mmHg 70%
    08:00 +5°C° 0 mm 1 mps 690 mmHg 67%
    09:00 +7°C° 0 mm 1 mps 691 mmHg 59%
    10:00 +10°C° 0 mm 1 mps 691 mmHg 51%
    11:00 +12°C° 0 mm 1 mps 692 mmHg 44%
    12:00 +12°C° 0 mm 1 mps 691 mmHg 43%
    13:00 +13°C° 0 mm 1 mps 691 mmHg 42%
    14:00 +13°C° 0 mm 1 mps 691 mmHg 41%
    15:00 +12°C° 0 mm 1 mps 691 mmHg 46%
    16:00 +11°C° 0 mm 1 mps 691 mmHg 50%
    17:00 +11°C° 0 mm 1 mps 690 mmHg 55%
    18:00 +9°C° 0 mm 1 mps 690 mmHg 61%
    19:00 +7°C° 0 mm 1 mps 690 mmHg 68%
    20:00 +5°C° 0 mm 1 mps 691 mmHg 75%
    21:00 +5°C° 0 mm 1 mps 691 mmHg 75%
    22:00 +5°C° 0 mm 1 mps 691 mmHg 76%
    23:00 +4°C° 0 mm 1 mps 691 mmHg 77%

    21 February, Thursday

    Time Temperature Precipitation Wind Pressure Humidity
    00:00 +4°C° 0 mm 1 mps 691 mmHg 76%
    01:00 +4°C° 0 mm 1 mps 692 mmHg 75%
    02:00 +4°C° 0 mm 1 mps 692 mmHg 75%
    03:00 +3°C° 0 mm 1 mps 692 mmHg 73%
    04:00 +3°C° 0 mm 1 mps 692 mmHg 70%
    05:00 +3°C° 0 mm 1 mps 692 mmHg 68%
    06:00 +3°C° 0 mm 1 mps 692 mmHg 64%
    07:00 +4°C° 0 mm 1 mps 693 mmHg 60%
    08:00 +4°C° 0 mm 1 mps 693 mmHg 56%
    09:00 +6°C° 0 mm 1 mps 694 mmHg 51%
    10:00 +8°C° 0 mm 1 mps 694 mmHg 45%
    11:00 +10°C° 0 mm 1 mps 695 mmHg 39%
    12:00 +11°C° 0 mm 1 mps 695 mmHg 40%
    13:00 +11°C° 0 mm 1 mps 695 mmHg 40%
    14:00 +11°C° 0 mm 1 mps 695 mmHg 41%
    15:00 +11°C° 0 mm 1 mps 694 mmHg 46%
    16:00 +10°C° 0 mm 1 mps 694 mmHg 51%
    17:00 +9°C° 0 mm 1 mps 694 mmHg 56%
    18:00 +7°C° 0 mm 1 mps 694 mmHg 63%
    19:00 +6°C° 0 mm 1 mps 694 mmHg 70%
    20:00 +3°C° 0 mm 0 mps 694 mmHg 77%
    21:00 +3°C° 0 mm 0 mps 694 mmHg 78%
    22:00 +2°C° 0 mm 0 mps 694 mmHg 80%
    23:00 +2°C° 0 mm 0 mps 694 mmHg 81%

    22 February, Friday

    Time Temperature Precipitation Wind Pressure Humidity
    00:00 +2°C° 0 mm 0 mps 694 mmHg 80%
    01:00 +2°C° 0 mm 0 mps 694 mmHg 80%
    02:00 +2°C° 0 mm 0 mps 694 mmHg 79%
    03:00 +2°C° 0 mm 0 mps 694 mmHg 78%
    04:00 +2°C° 0 mm 0 mps 694 mmHg 78%
    05:00 +2°C° 0 mm 0 mps 694 mmHg 77%
    06:00 +2°C° 0 mm 0 mps 694 mmHg 76%
    07:00 +2°C° 0 mm 0 mps 694 mmHg 74%
    08:00 +3°C° 0 mm 0 mps 694 mmHg 72%
    09:00 +6°C° 0 mm 1 mps 694 mmHg 65%
    10:00 +8°C° 0 mm 1 mps 695 mmHg 59%
    11:00 +10°C° 0 mm 1 mps 695 mmHg 52%
    12:00 +10°C° 0 mm 1 mps 695 mmHg 52%
    13:00 +9°C° 0 mm 2 mps 694 mmHg 53%
    14:00 +9°C° 0 mm 2 mps 694 mmHg 53%
    15:00 +8°C° 0.3 mm 2 mps 693 mmHg 60%
    16:00 +7°C° 0.3 mm 2 mps 693 mmHg 67%
    17:00 +6°C° 0.3 mm 2 mps 693 mmHg 73%
    18:00 +5°C° 0.6 mm 2 mps 693 mmHg 78%
    19:00 +4°C° 0.6 mm 2 mps 693 mmHg 83%
    20:00 +4°C° 0.6 mm 2 mps 693 mmHg 87%
    21:00 +3°C° 0.2 mm 2 mps 693 mmHg 88%
    22:00 +3°C° 0.2 mm 2 mps 693 mmHg 88%
    23:00 +2°C° 0.2 mm 2 mps 693 mmHg 88%
    Show more